User: anonymous   Login
Location: Ash Swamp
(41.5170°N, 74.6157°W)
Time: 16:42:01
(UTC+00:00)
Language:

Cosmos 1606 - Orbit

View from above orbital plane
View from above orbital plane
View from above satellite
View from above satellite

Ground track
Ground track

The orbit data is extracted from the following two-line orbital elements,

1 15369U 84111A   20270.79117809  .00000956  00000-0  46884-4 0  9996
2 15369  82.5306  23.3041 0018798  64.6447 295.6730 15.16759337961934
Epoch (UTC): 26 September 2020 18:59:17
Eccentricity: 0.0018798
inclination: 82.5306°
perigee height: 502 km
apogee height: 528 km
right ascension of ascending node: 23.3041°
argument of perigee: 64.6447°
revolutions per day: 15.16759337
mean anomaly at epoch: 295.6730°
orbit number at epoch: 96193

The dashed part of the orbit path shows where the satellite is in the earth's shadow,  

DLR